Weather in Bayan-Kol

Russia / Tyva Republic     51°34′48″N   93°33′12″E
temp.,
°C
wind,
m/s
gust,
m/s
humid.,
%
clouds,
%
prec.,
mm/h
press.,
hPa
HPBL,
m
5 march, fri
fri501:00−16se12750 0.0 103220
04:00−17ese22760 0.0 103120
07:00−18ese227819 0.0 103120
10:00−14nne118462 0.0 102974
13:00−12ene238781 0.0 1027249
16:00−12wnw119299 0.0 1025163
19:00−14w229599 0.0 102821
22:00−16sw229240 0.0 103120
6 march, sat
sat601:00−16s228737 0.0 103420
04:00−16se11791 0.0 103520
07:00−17ese227925 0.0 103520
10:00−14nne118494 0.0 103374
13:00−12nne119297 0.0 1030192
16:00−10ne2291100 0.0 1027170
19:00−14ene0192100 0.0 102821
22:00−16w1192100 0.0 102720
7 march, sun
sun701:00−17wsw128699 0.0 102720
04:00−18wsw118879 0.0 102620
07:00−19w119182 0.0 102820
10:00−15nw119180 0.0 102751
13:00−12n119090 0.0 1026165
16:00−10ne118899 0.0 1025146
19:00−13nw1193100 0.0 102721
22:00−14w1193100 0.0 102921
8 march, mon
mon801:00−15sw118764 0.0 103021
04:00−16ese117687 0.0 103020
07:00−16ese117488 0.0 103220
10:00−12ne118080 0.0 102969
13:00−10ne228647 0.0 1027199
16:00−8ne128812 0.0 1025161
19:00−14sw009612 0.0 102621
22:00−15sw119112 0.0 102620
9 march, tue
tue901:00−14w228156 0.0 102620
04:00−15w1189100 0.0 102720
07:00−15wsw1293100 0.0 103020
10:00−10ene118297 0.0 103042
13:00−7ne228554 0.0 1029185
16:00−6ene23866 0.0 1028165
19:00−11ese22803 0.0 102921
22:00−12ese11750 0.0 103021